| time (UTC) | temp F | wind direction | speed MPH | gust MPH | rain 1hr in | rain 24hr in | rain mn in | humidity % | barometer mb |
| 20260506035608 | 74 | 245 | 3.0 | 4.0 | 0.00 | 0.00 | 0.00 | 35 | 1003.3 |
| 20260506035108 | 74 | 246 | 2.0 | 6.0 | 0.00 | 0.00 | 0.00 | 35 | 1003.4 |
| 20260506034608 | 74 | 234 | 2.0 | 2.0 | 0.00 | 0.00 | 0.00 | 36 | 1003.3 |
| 20260506034109 | 74 | 234 | 2.0 | 5.0 | 0.00 | 0.00 | 0.00 | 35 | 1003.3 |
| 20260506033608 | 74 | 240 | 2.0 | 4.0 | 0.00 | 0.00 | 0.00 | 35 | 1003.3 |
| 20260506033108 | 74 | 240 | 2.0 | 4.0 | 0.00 | 0.00 | 0.00 | 35 | 1003.1 |
| 20260506032609 | 74 | 242 | 3.0 | 4.0 | 0.00 | 0.00 | 0.00 | 35 | 1003.1 |
| 20260506032109 | 74 | 246 | 2.0 | 4.0 | 0.00 | 0.00 | 0.00 | 35 | 1003.2 |
| 20260506031609 | 74 | 240 | 2.0 | 4.0 | 0.00 | 0.00 | 0.00 | 35 | 1003.1 |
| 20260506031109 | 75 | 235 | 3.0 | 4.0 | 0.00 | 0.00 | 0.00 | 35 | 1003.1 |
| 20260506030609 | 75 | 236 | 2.0 | 4.0 | 0.00 | 0.00 | 0.00 | 34 | 1003.1 |
| 20260506030109 | 75 | 248 | 2.0 | 3.0 | 0.00 | 0.00 | 0.00 | 34 | 1002.9 |
| 20260506025609 | 76 | 249 | 2.0 | 4.0 | 0.00 | 0.00 | 0.00 | 34 | 1002.8 |
| 20260506025109 | 76 | 252 | 2.0 | 4.0 | 0.00 | 0.00 | 0.00 | 34 | 1002.7 |
| 20260506024609 | 77 | 261 | 1.0 | 4.0 | 0.00 | 0.00 | 0.00 | 33 | 1002.5 |
| 20260506024109 | 77 | 288 | 0.0 | 0.0 | 0.00 | 0.00 | 0.00 | 32 | 1002.3 |
| 20260506023609 | 78 | 288 | 0.0 | 1.0 | 0.00 | 0.00 | 0.00 | 31 | 1002.1 |
| 20260506023109 | 78 | 288 | 1.0 | 3.0 | 0.00 | 0.00 | 0.00 | 31 | 1002.2 |
| 20260506022609 | 78 | 286 | 1.0 | 2.0 | 0.00 | 0.00 | 0.00 | 30 | 1002.1 |
| 20260506022109 | 78 | 286 | 1.0 | 2.0 | 0.00 | 0.00 | 0.00 | 30 | 1002.2 |
| 20260506021609 | 78 | 282 | 1.0 | 1.0 | 0.00 | 0.00 | 0.00 | 30 | 1002.3 |
| 20260506021109 | 79 | 281 | 1.0 | 2.0 | 0.00 | 0.00 | 0.00 | 30 | 1002.5 |
| 20260506020609 | 78 | 281 | 1.0 | 3.0 | 0.00 | 0.00 | 0.00 | 30 | 1002.6 |
| 20260506020109 | 79 | 277 | 1.0 | 3.0 | 0.00 | 0.00 | 0.00 | 30 | 1002.5 |
| 20260506015609 | 79 | 289 | 1.0 | 3.0 | 0.00 | 0.00 | 0.00 | 29 | 1002.5 |
| 20260506015109 | 79 | 287 | 1.0 | 3.0 | 0.00 | 0.00 | 0.00 | 29 | 1002.5 |
| 20260506014609 | 79 | 302 | 2.0 | 3.0 | 0.00 | 0.00 | 0.00 | 29 | 1002.5 |
| 20260506014109 | 79 | 307 | 3.0 | 5.0 | 0.00 | 0.00 | 0.00 | 28 | 1002.3 |
| 20260506013609 | 80 | 300 | 3.0 | 7.0 | 0.00 | 0.00 | 0.00 | 28 | 1002.3 |
| 20260506013109 | 80 | 297 | 4.0 | 8.0 | 0.00 | 0.00 | 0.00 | 28 | 1002.2 |
| 20260506012609 | 80 | 311 | 4.0 | 7.0 | 0.00 | 0.00 | 0.00 | 28 | 1002.2 |
| 20260506012109 | 80 | 292 | 4.0 | 10.0 | 0.00 | 0.00 | 0.00 | 28 | 1002.2 |
| 20260506011609 | 80 | 309 | 5.0 | 9.0 | 0.00 | 0.00 | 0.00 | 27 | 1002.2 |
| 20260506011109 | 81 | 325 | 6.0 | 10.0 | 0.00 | 0.00 | 0.00 | 27 | 1002.3 |
| 20260506010609 | 81 | 277 | 6.0 | 11.0 | 0.00 | 0.00 | 0.00 | 27 | 1002.3 |
| 20260506010109 | 81 | 311 | 5.0 | 11.0 | 0.00 | 0.00 | 0.00 | 27 | 1002.2 |
| 20260506005609 | 82 | 311 | 5.0 | 10.0 | 0.00 | 0.00 | 0.00 | 27 | 1002.2 |
| 20260506005109 | 81 | 301 | 5.0 | 10.0 | 0.00 | 0.00 | 0.00 | 27 | 1002.2 |
| 20260506004609 | 81 | 295 | 7.0 | 13.0 | 0.00 | 0.00 | 0.00 | 27 | 1002.2 |
| 20260506004109 | 81 | 315 | 6.0 | 14.0 | 0.00 | 0.00 | 0.00 | 27 | 1002.3 |
| 20260506003609 | 82 | 304 | 7.0 | 12.0 | 0.00 | 0.00 | 0.00 | 27 | 1002.2 |
| 20260506003109 | 82 | 290 | 9.0 | 16.0 | 0.00 | 0.00 | 0.00 | 26 | 1002.2 |
| 20260506002609 | 82 | 292 | 10.0 | 18.0 | 0.00 | 0.00 | 0.00 | 26 | 1002.3 |
| 20260506002109 | 82 | 292 | 9.0 | 21.0 | 0.00 | 0.00 | 0.00 | 26 | 1002.4 |
| 20260506001609 | 82 | 297 | 9.0 | 15.0 | 0.00 | 0.00 | 0.00 | 26 | 1002.3 |
| 20260506001109 | 83 | 277 | 11.0 | 17.0 | 0.00 | 0.00 | 0.00 | 25 | 1002.3 |
| 20260506000609 | 83 | 286 | 11.0 | 21.0 | 0.00 | 0.00 | 0.00 | 25 | 1002.3 |
| 20260506000109 | 83 | 248 | 8.0 | 24.0 | 0.00 | 0.00 | 0.00 | 24 | 1002.1 |
| 20260505235609 | 84 | 290 | 7.0 | 13.0 | 0.00 | 0.00 | 0.00 | 24 | 1002.0 |
| 20260505235109 | 84 | 295 | 7.0 | 13.0 | 0.00 | 0.00 | 0.00 | 24 | 1001.9 |
| 20260505234609 | 84 | 301 | 8.0 | 17.0 | 0.00 | 0.00 | 0.00 | 23 | 1001.9 |
| 20260505234109 | 84 | 299 | 8.0 | 16.0 | 0.00 | 0.00 | 0.00 | 22 | 1001.8 |
| 20260505233609 | 84 | 326 | 6.0 | 14.0 | 0.00 | 0.00 | 0.00 | 24 | 1001.6 |
| 20260505233109 | 84 | 277 | 7.0 | 13.0 | 0.00 | 0.00 | 0.00 | 24 | 1001.5 |
| 20260505232609 | 85 | 275 | 6.0 | 11.0 | 0.00 | 0.00 | 0.00 | 23 | 1001.4 |
| 20260505232109 | 85 | 287 | 5.0 | 10.0 | 0.00 | 0.00 | 0.00 | 24 | 1001.4 |
| 20260505231609 | 85 | 340 | 5.0 | 9.0 | 0.00 | 0.00 | 0.00 | 24 | 1001.3 |
| 20260505231109 | 85 | 313 | 4.0 | 9.0 | 0.00 | 0.00 | 0.00 | 24 | 1001.5 |
| 20260505230609 | 84 | 304 | 4.0 | 10.0 | 0.00 | 0.00 | 0.00 | 25 | 1001.4 |
| 20260505230109 | 84 | 23 | 5.0 | 10.0 | 0.00 | 0.00 | 0.00 | 24 | 1001.4 |
| 20260505225609 | 84 | 26 | 5.0 | 10.0 | 0.00 | 0.00 | 0.00 | 24 | 1001.6 |
| 20260505225109 | 84 | 26 | 5.0 | 12.0 | 0.00 | 0.00 | 0.00 | 24 | 1001.7 |
| 20260505224609 | 84 | 298 | 6.0 | 12.0 | 0.00 | 0.00 | 0.00 | 24 | 1001.7 |
| 20260505224109 | 84 | 322 | 5.0 | 11.0 | 0.00 | 0.00 | 0.00 | 24 | 1001.7 |
| 20260505223609 | 84 | 333 | 5.0 | 10.0 | 0.00 | 0.00 | 0.00 | 24 | 1001.6 |
| 20260505223109 | 84 | 329 | 7.0 | 14.0 | 0.00 | 0.00 | 0.00 | 24 | 1001.6 |
| 20260505222609 | 84 | 310 | 7.0 | 14.0 | 0.00 | 0.00 | 0.00 | 23 | 1001.7 |
| 20260505222109 | 84 | 317 | 8.0 | 16.0 | 0.00 | 0.00 | 0.00 | 23 | 1001.8 |
| 20260505221609 | 84 | 335 | 9.0 | 17.0 | 0.00 | 0.00 | 0.00 | 23 | 1001.8 |
| 20260505221109 | 84 | 328 | 8.0 | 17.0 | 0.00 | 0.00 | 0.00 | 23 | 1001.9 |
| 20260505220609 | 84 | 5 | 6.0 | 13.0 | 0.00 | 0.00 | 0.00 | 23 | 1001.9 |
| 20260505220109 | 83 | 325 | 7.0 | 16.0 | 0.00 | 0.00 | 0.00 | 23 | 1001.7 |
| 20260505215609 | 84 | 331 | 7.0 | 17.0 | 0.00 | 0.00 | 0.00 | 22 | 1001.9 |
| 20260505215109 | 84 | 338 | 8.0 | 14.0 | 0.00 | 0.00 | 0.00 | 22 | 1002.1 |
| 20260505214609 | 84 | 23 | 9.0 | 17.0 | 0.00 | 0.00 | 0.00 | 22 | 1002.2 |
| 20260505214111 | 84 | 0 | 9.0 | 18.0 | 0.00 | 0.00 | 0.00 | 22 | 1002.2 |
| 20260505213609 | 84 | 9 | 10.0 | 19.0 | 0.00 | 0.00 | 0.00 | 22 | 1002.3 |
| 20260505213109 | 85 | 314 | 10.0 | 20.0 | 0.00 | 0.00 | 0.00 | 21 | 1002.4 |
| 20260505212609 | 85 | 303 | 10.0 | 21.0 | 0.00 | 0.00 | 0.00 | 22 | 1002.3 |
| 20260505212109 | 85 | 316 | 10.0 | 21.0 | 0.00 | 0.00 | 0.00 | 22 | 1002.3 |
| 20260505211609 | 85 | 329 | 10.0 | 22.0 | 0.00 | 0.00 | 0.00 | 21 | 1002.2 |
| 20260505211109 | 86 | 277 | 8.0 | 20.0 | 0.00 | 0.00 | 0.00 | 21 | 1001.9 |
| 20260505210609 | 86 | 326 | 9.0 | 16.0 | 0.00 | 0.00 | 0.00 | 21 | 1002.1 |
| 20260505210109 | 86 | 17 | 11.0 | 19.0 | 0.00 | 0.00 | 0.00 | 20 | 1002.0 |
| 20260505205609 | 87 | 5 | 10.0 | 22.0 | 0.00 | 0.00 | 0.00 | 20 | 1002.2 |
| 20260505205109 | 87 | 324 | 10.0 | 18.0 | 0.00 | 0.00 | 0.00 | 20 | 1002.4 |
| 20260505204609 | 87 | 333 | 10.0 | 19.0 | 0.00 | 0.00 | 0.00 | 20 | 1002.5 |
| 20260505204109 | 86 | 0 | 8.0 | 18.0 | 0.00 | 0.00 | 0.00 | 21 | 1002.4 |
| 20260505203609 | 86 | 312 | 8.0 | 14.0 | 0.00 | 0.00 | 0.00 | 21 | 1002.2 |
| 20260505203109 | 86 | 313 | 10.0 | 15.0 | 0.00 | 0.00 | 0.00 | 22 | 1002.2 |
| 20260505202609 | 86 | 292 | 10.0 | 20.0 | 0.00 | 0.00 | 0.00 | 22 | 1002.2 |
| 20260505202109 | 86 | 303 | 11.0 | 19.0 | 0.00 | 0.00 | 0.00 | 21 | 1002.3 |
| 20260505201609 | 86 | 321 | 12.0 | 20.0 | 0.00 | 0.00 | 0.00 | 22 | 1002.4 |
| 20260505201109 | 86 | 319 | 11.0 | 20.0 | 0.00 | 0.00 | 0.00 | 21 | 1002.3 |
| 20260505200609 | 87 | 331 | 11.0 | 22.0 | 0.00 | 0.00 | 0.00 | 21 | 1002.2 |
| 20260505200109 | 87 | 346 | 11.0 | 20.0 | 0.00 | 0.00 | 0.00 | 21 | 1002.4 |
| 20260505195609 | 87 | 294 | 11.0 | 20.0 | 0.00 | 0.00 | 0.00 | 21 | 1002.4 |
| 20260505195109 | 89 | 15 | 11.0 | 21.0 | 0.00 | 0.00 | 0.00 | 20 | 1002.5 |
| 20260505194609 | 89 | 328 | 12.0 | 19.0 | 0.00 | 0.00 | 0.00 | 20 | 1002.5 |
| 20260505194109 | 89 | 270 | 11.0 | 21.0 | 0.00 | 0.00 | 0.00 | 21 | 1002.4 |
| 20260505193609 | 89 | 262 | 9.0 | 23.0 | 0.00 | 0.00 | 0.00 | 21 | 1002.4 |
| 20260505193109 | 88 | 329 | 10.0 | 16.0 | 0.00 | 0.00 | 0.00 | 21 | 1002.2 |
| 20260505192609 | 88 | 286 | 10.0 | 21.0 | 0.00 | 0.00 | 0.00 | 20 | 1002.4 |
| 20260505192109 | 88 | 348 | 9.0 | 20.0 | 0.00 | 0.00 | 0.00 | 20 | 1002.3 |
| 20260505191610 | 88 | 319 | 9.0 | 16.0 | 0.00 | 0.00 | 0.00 | 21 | 1002.2 |
| 20260505191109 | 88 | 219 | 8.0 | 16.0 | 0.00 | 0.00 | 0.00 | 21 | 1002.4 |
| 20260505190610 | 89 | 265 | 9.0 | 17.0 | 0.00 | 0.00 | 0.00 | 20 | 1002.3 |
| 20260505190110 | 89 | 342 | 11.0 | 16.0 | 0.00 | 0.00 | 0.00 | 20 | 1002.4 |
| 20260505185610 | 90 | 308 | 10.0 | 18.0 | 0.00 | 0.00 | 0.00 | 20 | 1002.5 |
| 20260505185110 | 90 | 298 | 9.0 | 17.0 | 0.00 | 0.00 | 0.00 | 20 | 1002.6 |
| 20260505184610 | 89 | 284 | 10.0 | 21.0 | 0.00 | 0.00 | 0.00 | 20 | 1002.7 |
| 20260505184110 | 88 | 302 | 10.0 | 21.0 | 0.00 | 0.00 | 0.00 | 20 | 1002.6 |
| 20260505183610 | 88 | 299 | 9.0 | 15.0 | 0.00 | 0.00 | 0.00 | 20 | 1002.8 |
| 20260505183110 | 88 | 334 | 9.0 | 24.0 | 0.00 | 0.00 | 0.00 | 20 | 1002.8 |
| 20260505182610 | 88 | 286 | 8.0 | 17.0 | 0.00 | 0.00 | 0.00 | 20 | 1002.7 |
| 20260505182110 | 88 | 322 | 9.0 | 17.0 | 0.00 | 0.00 | 0.00 | 21 | 1002.6 |
| 20260505181610 | 88 | 273 | 9.0 | 17.0 | 0.00 | 0.00 | 0.00 | 20 | 1002.7 |
| 20260505181110 | 88 | 267 | 8.0 | 18.0 | 0.00 | 0.00 | 0.00 | 21 | 1002.7 |
| 20260505180610 | 88 | 306 | 7.0 | 14.0 | 0.00 | 0.00 | 0.00 | 20 | 1002.8 |
| 20260505180110 | 88 | 321 | 7.0 | 14.0 | 0.00 | 0.00 | 0.00 | 21 | 1002.6 |
| 20260505175610 | 88 | 317 | 7.0 | 13.0 | 0.00 | 0.00 | 0.00 | 21 | 1003.0 |
| 20260505175110 | 88 | 355 | 6.0 | 14.0 | 0.00 | 0.00 | 0.00 | 20 | 1003.1 |
| 20260505174610 | 89 | 293 | 6.0 | 14.0 | 0.00 | 0.00 | 0.00 | 21 | 1002.8 |
| 20260505174110 | 88 | 294 | 6.0 | 14.0 | 0.00 | 0.00 | 0.00 | 23 | 1002.9 |
| 20260505173610 | 87 | 261 | 5.0 | 10.0 | 0.00 | 0.00 | 0.00 | 23 | 1003.0 |
| 20260505173110 | 87 | 345 | 5.0 | 14.0 | 0.00 | 0.00 | 0.00 | 22 | 1003.0 |
| 20260505172610 | 87 | 33 | 5.0 | 12.0 | 0.00 | 0.00 | 0.00 | 23 | 1003.1 |
| 20260505172110 | 86 | 33 | 5.0 | 11.0 | 0.00 | 0.00 | 0.00 | 24 | 1003.2 |
| 20260505171610 | 86 | 19 | 5.0 | 12.0 | 0.00 | 0.00 | 0.00 | 23 | 1003.2 |
| 20260505171110 | 86 | 24 | 5.0 | 11.0 | 0.00 | 0.00 | 0.00 | 23 | 1003.2 |
| 20260505170610 | 85 | 24 | 5.0 | 11.0 | 0.00 | 0.00 | 0.00 | 24 | 1003.1 |
| 20260505170110 | 85 | 11 | 6.0 | 10.0 | 0.00 | 0.00 | 0.00 | 23 | 1003.2 |
| 20260505165610 | 85 | 27 | 5.0 | 12.0 | 0.00 | 0.00 | 0.00 | 24 | 1003.2 |
| 20260505165110 | 84 | 314 | 5.0 | 12.0 | 0.00 | 0.00 | 0.00 | 25 | 1003.1 |
| 20260505164610 | 84 | 17 | 6.0 | 13.0 | 0.00 | 0.00 | 0.00 | 25 | 1003.2 |
| 20260505164110 | 83 | 329 | 6.0 | 10.0 | 0.00 | 0.00 | 0.00 | 26 | 1003.2 |
| 20260505163610 | 83 | 299 | 6.0 | 11.0 | 0.00 | 0.00 | 0.00 | 25 | 1003.3 |
| 20260505163110 | 83 | 340 | 4.0 | 10.0 | 0.00 | 0.00 | 0.00 | 27 | 1003.3 |
| 20260505162610 | 82 | 297 | 5.0 | 11.0 | 0.00 | 0.00 | 0.00 | 28 | 1003.3 |
| 20260505162112 | 82 | 317 | 7.0 | 13.0 | 0.00 | 0.00 | 0.00 | 28 | 1003.4 |
| 20260505161612 | 82 | 326 | 6.0 | 12.0 | 0.00 | 0.00 | 0.00 | 28 | 1003.2 |
| 20260505161110 | 81 | 5 | 5.0 | 10.0 | 0.00 | 0.00 | 0.00 | 29 | 1003.2 |
| 20260505160610 | 81 | 311 | 4.0 | 10.0 | 0.00 | 0.00 | 0.00 | 32 | 1003.2 |
| 20260505160110 | 80 | 324 | 4.0 | 9.0 | 0.00 | 0.00 | 0.00 | 35 | 1003.1 |
| 20260505153110 | 77 | 316 | 6.0 | 13.0 | 0.00 | 0.00 | 0.00 | 48 | 1003.1 |
| 20260505152610 | 77 | 311 | 5.0 | 10.0 | 0.00 | 0.00 | 0.00 | 49 | 1002.9 |
| 20260505152110 | 76 | 306 | 5.0 | 10.0 | 0.00 | 0.00 | 0.00 | 50 | 1002.8 |
| 20260505151613 | 76 | 313 | 6.0 | 10.0 | 0.00 | 0.00 | 0.00 | 51 | 1002.8 |
| 20260505151112 | 75 | 307 | 6.0 | 10.0 | 0.00 | 0.00 | 0.00 | 53 | 1002.8 |
| 20260505150610 | 75 | 311 | 6.0 | 12.0 | 0.00 | 0.00 | 0.00 | 53 | 1002.8 |
| 20260505150114 | 75 | 306 | 6.0 | 9.0 | 0.00 | 0.00 | 0.00 | 56 | 1002.8 |
| 20260505140610 | 70 | 254 | 8.0 | 13.0 | 0.00 | 0.00 | 0.00 | 69 | 1002.3 |
| 20260505140110 | 70 | 241 | 8.0 | 14.0 | 0.00 | 0.00 | 0.00 | 71 | 1002.1 |
| 20260505130110 | 66 | 248 | 10.0 | 15.0 | 0.00 | 0.00 | 0.00 | 80 | 1001.7 |
| 20260505124610 | 66 | 266 | 9.0 | 15.0 | 0.00 | 0.00 | 0.00 | 80 | 1001.5 |
| 20260505124110 | 66 | 265 | 9.0 | 14.0 | 0.00 | 0.00 | 0.00 | 80 | 1001.5 |
| 20260505123610 | 66 | 259 | 8.0 | 15.0 | 0.00 | 0.00 | 0.00 | 80 | 1001.4 |
| 20260505123110 | 66 | 271 | 8.0 | 14.0 | 0.00 | 0.00 | 0.00 | 80 | 1001.3 |
| 20260505122610 | 66 | 261 | 9.0 | 13.0 | 0.00 | 0.00 | 0.00 | 80 | 1001.2 |
| 20260505122110 | 66 | 241 | 10.0 | 14.0 | 0.00 | 0.00 | 0.00 | 80 | 1001.3 |
| 20260505121610 | 66 | 243 | 10.0 | 19.0 | 0.00 | 0.00 | 0.00 | 80 | 1001.1 |
| 20260505121110 | 66 | 241 | 9.0 | 15.0 | 0.00 | 0.00 | 0.00 | 80 | 1001.0 |
| 20260505120610 | 66 | 279 | 10.0 | 15.0 | 0.00 | 0.00 | 0.00 | 79 | 1001.0 |
| 20260505120110 | 66 | 267 | 10.0 | 14.0 | 0.00 | 0.00 | 0.00 | 79 | 1000.9 |
| 20260505115610 | 66 | 254 | 9.0 | 16.0 | 0.00 | 0.00 | 0.00 | 79 | 1000.9 |
| 20260505115110 | 66 | 248 | 8.0 | 16.0 | 0.00 | 0.00 | 0.00 | 79 | 1000.9 |
| 20260505114610 | 66 | 244 | 8.0 | 12.0 | 0.00 | 0.00 | 0.00 | 78 | 1000.9 |
| 20260505114110 | 67 | 232 | 9.0 | 13.0 | 0.00 | 0.00 | 0.00 | 78 | 1001.0 |
| 20260505113610 | 67 | 261 | 9.0 | 16.0 | 0.00 | 0.00 | 0.00 | 78 | 1000.9 |
| 20260505113110 | 67 | 255 | 9.0 | 16.0 | 0.00 | 0.00 | 0.00 | 78 | 1001.0 |
| 20260505112610 | 67 | 242 | 9.0 | 16.0 | 0.00 | 0.00 | 0.00 | 77 | 1001.0 |
| 20260505112110 | 67 | 256 | 9.0 | 19.0 | 0.00 | 0.00 | 0.00 | 77 | 1001.0 |
| 20260505111610 | 67 | 251 | 9.0 | 13.0 | 0.00 | 0.00 | 0.00 | 77 | 1000.9 |
| 20260505111110 | 67 | 236 | 10.0 | 18.0 | 0.00 | 0.00 | 0.00 | 77 | 1000.8 |
| 20260505110610 | 67 | 279 | 10.0 | 19.0 | 0.00 | 0.00 | 0.00 | 77 | 1000.9 |
| 20260505110110 | 68 | 268 | 10.0 | 18.0 | 0.00 | 0.00 | 0.00 | 76 | 1000.8 |
| 20260505102111 | 67 | 262 | 11.0 | 19.0 | 0.00 | 0.00 | 0.00 | 77 | 1000.5 |
| 20260505101611 | 67 | 246 | 10.0 | 16.0 | 0.00 | 0.00 | 0.00 | 77 | 1000.6 |
| 20260505101111 | 67 | 225 | 10.0 | 18.0 | 0.00 | 0.00 | 0.00 | 77 | 1000.6 |
| 20260505100611 | 67 | 241 | 9.0 | 17.0 | 0.00 | 0.00 | 0.00 | 76 | 1000.6 |
| 20260505100111 | 67 | 238 | 9.0 | 14.0 | 0.00 | 0.00 | 0.00 | 76 | 1000.5 |
| 20260505095611 | 67 | 241 | 9.0 | 12.0 | 0.00 | 0.00 | 0.00 | 76 | 1000.4 |
| 20260505095111 | 67 | 249 | 10.0 | 16.0 | 0.00 | 0.00 | 0.00 | 76 | 1000.2 |
| 20260505094611 | 67 | 249 | 10.0 | 17.0 | 0.00 | 0.00 | 0.00 | 76 | 1000.3 |
| 20260505094111 | 67 | 219 | 10.0 | 17.0 | 0.00 | 0.00 | 0.00 | 75 | 1000.5 |
| 20260505093611 | 67 | 249 | 10.0 | 14.0 | 0.00 | 0.00 | 0.00 | 75 | 1000.6 |
| 20260505093111 | 67 | 244 | 10.0 | 17.0 | 0.00 | 0.00 | 0.00 | 75 | 1000.6 |
| 20260505092611 | 68 | 277 | 10.0 | 19.0 | 0.00 | 0.00 | 0.00 | 75 | 1000.6 |
| 20260505092111 | 68 | 247 | 9.0 | 17.0 | 0.00 | 0.00 | 0.00 | 74 | 1000.6 |
| 20260505091611 | 68 | 260 | 9.0 | 15.0 | 0.00 | 0.00 | 0.00 | 74 | 1000.3 |
| 20260505091111 | 68 | 231 | 9.0 | 15.0 | 0.00 | 0.00 | 0.00 | 74 | 1000.2 |
| 20260505090611 | 68 | 250 | 9.0 | 15.0 | 0.00 | 0.00 | 0.00 | 74 | 1000.2 |
| 20260505090111 | 68 | 249 | 10.0 | 16.0 | 0.00 | 0.00 | 0.00 | 74 | 1000.3 |
| 20260505085611 | 68 | 245 | 10.0 | 18.0 | 0.00 | 0.00 | 0.00 | 73 | 1000.5 |
| 20260505085111 | 69 | 251 | 10.0 | 16.0 | 0.00 | 0.00 | 0.00 | 73 | 1000.6 |
| 20260505084617 | 69 | 228 | 10.0 | 17.0 | 0.00 | 0.00 | 0.00 | 72 | 1000.6 |
| 20260505084611 | 69 | 228 | 10.0 | 17.0 | 0.00 | 0.00 | 0.00 | 72 | 1000.6 |
| 20260505084111 | 69 | 244 | 11.0 | 16.0 | 0.00 | 0.00 | 0.00 | 72 | 1000.7 |
| 20260505083611 | 69 | 260 | 11.0 | 18.0 | 0.00 | 0.00 | 0.00 | 71 | 1000.5 |
| 20260505083111 | 69 | 259 | 11.0 | 18.0 | 0.00 | 0.00 | 0.00 | 71 | 1000.2 |
| 20260505082611 | 69 | 252 | 11.0 | 17.0 | 0.00 | 0.00 | 0.00 | 71 | 1000.2 |
| 20260505082111 | 70 | 251 | 11.0 | 18.0 | 0.00 | 0.00 | 0.00 | 70 | 1000.4 |
| 20260505081611 | 70 | 257 | 11.0 | 17.0 | 0.00 | 0.00 | 0.00 | 70 | 1000.5 |
| 20260505081111 | 70 | 300 | 11.0 | 20.0 | 0.00 | 0.00 | 0.00 | 69 | 1000.5 |
| 20260505080611 | 70 | 241 | 12.0 | 19.0 | 0.00 | 0.00 | 0.00 | 69 | 1000.7 |
| 20260505080111 | 70 | 238 | 10.0 | 18.0 | 0.00 | 0.00 | 0.00 | 68 | 1000.7 |
| 20260505075611 | 70 | 230 | 10.0 | 15.0 | 0.00 | 0.00 | 0.00 | 68 | 1000.9 |
| 20260505075111 | 71 | 259 | 12.0 | 19.0 | 0.00 | 0.00 | 0.00 | 68 | 1000.9 |
| 20260505074611 | 71 | 242 | 11.0 | 20.0 | 0.00 | 0.00 | 0.00 | 67 | 1001.0 |
| 20260505074111 | 71 | 246 | 11.0 | 18.0 | 0.00 | 0.00 | 0.00 | 67 | 1000.9 |
| 20260505073611 | 71 | 242 | 9.0 | 17.0 | 0.00 | 0.00 | 0.00 | 67 | 1001.1 |
| 20260505073111 | 71 | 242 | 10.0 | 15.0 | 0.00 | 0.00 | 0.00 | 66 | 1001.1 |
| 20260505072611 | 71 | 257 | 10.0 | 18.0 | 0.00 | 0.00 | 0.00 | 66 | 1001.1 |
| 20260505072111 | 71 | 257 | 9.0 | 17.0 | 0.00 | 0.00 | 0.00 | 65 | 1001.1 |
| 20260505071611 | 72 | 228 | 10.0 | 15.0 | 0.00 | 0.00 | 0.00 | 65 | 1001.1 |
| 20260505071111 | 72 | 250 | 11.0 | 18.0 | 0.00 | 0.00 | 0.00 | 65 | 1001.2 |
| 20260505070611 | 72 | 248 | 11.0 | 17.0 | 0.00 | 0.00 | 0.00 | 64 | 1001.4 |
| 20260505070111 | 72 | 239 | 11.0 | 16.0 | 0.00 | 0.00 | 0.00 | 64 | 1001.3 |
| 20260505065611 | 72 | 237 | 12.0 | 19.0 | 0.00 | 0.00 | 0.00 | 64 | 1001.3 |
| 20260505065111 | 72 | 252 | 11.0 | 20.0 | 0.00 | 0.00 | 0.00 | 63 | 1001.2 |
| 20260505064611 | 72 | 249 | 11.0 | 17.0 | 0.00 | 0.00 | 0.00 | 63 | 1001.4 |
| 20260505064111 | 73 | 248 | 11.0 | 19.0 | 0.00 | 0.00 | 0.00 | 63 | 1001.4 |
| 20260505063611 | 73 | 262 | 11.0 | 16.0 | 0.00 | 0.00 | 0.00 | 62 | 1001.5 |
| 20260505063111 | 73 | 259 | 10.0 | 16.0 | 0.00 | 0.00 | 0.00 | 62 | 1001.4 |
| 20260505062611 | 73 | 236 | 10.0 | 19.0 | 0.00 | 0.00 | 0.00 | 62 | 1001.5 |
| 20260505062111 | 73 | 248 | 10.0 | 17.0 | 0.00 | 0.00 | 0.00 | 61 | 1001.5 |
| 20260505061611 | 73 | 246 | 10.0 | 16.0 | 0.00 | 0.00 | 0.00 | 61 | 1001.5 |
| 20260505061111 | 73 | 246 | 9.0 | 16.0 | 0.00 | 0.00 | 0.00 | 60 | 1001.7 |
| 20260505060611 | 73 | 237 | 10.0 | 15.0 | 0.00 | 0.00 | 0.00 | 60 | 1001.9 |
| 20260505060111 | 73 | 255 | 10.0 | 17.0 | 0.00 | 0.00 | 0.00 | 60 | 1001.8 |
| 20260505055611 | 73 | 238 | 10.0 | 19.0 | 0.00 | 0.00 | 0.00 | 60 | 1001.9 |
| 20260505055111 | 74 | 250 | 9.0 | 14.0 | 0.00 | 0.00 | 0.00 | 59 | 1002.1 |
| 20260505054635 | 74 | 251 | 10.0 | 18.0 | 0.00 | 0.00 | 0.00 | 58 | 1002.1 |
| 20260505054111 | 74 | 249 | 10.0 | 17.0 | 0.00 | 0.00 | 0.00 | 58 | 1001.9 |
| 20260505053611 | 74 | 259 | 10.0 | 18.0 | 0.00 | 0.00 | 0.00 | 57 | 1001.8 |
| 20260505053111 | 75 | 252 | 11.0 | 18.0 | 0.00 | 0.00 | 0.00 | 57 | 1002.0 |
| 20260505052611 | 75 | 236 | 11.0 | 23.0 | 0.00 | 0.00 | 0.00 | 56 | 1002.0 |
| 20260505052111 | 75 | 247 | 12.0 | 17.0 | 0.00 | 0.00 | 0.00 | 56 | 1001.8 |
| 20260505051611 | 75 | 238 | 12.0 | 21.0 | 0.00 | 0.00 | 0.00 | 55 | 1001.7 |
| 20260505051111 | 75 | 258 | 12.0 | 18.0 | 0.00 | 0.00 | 0.00 | 55 | 1001.9 |
| 20260505050611 | 76 | 257 | 11.0 | 18.0 | 0.00 | 0.00 | 0.00 | 55 | 1002.0 |
| 20260505050111 | 76 | 252 | 11.0 | 19.0 | 0.00 | 0.00 | 0.00 | 54 | 1002.1 |
| 20260505041611 | 77 | 273 | 11.0 | 18.0 | 0.00 | 0.00 | 0.00 | 51 | 1002.0 |
| 20260505041111 | 78 | 227 | 10.0 | 16.0 | 0.00 | 0.00 | 0.00 | 50 | 1001.9 |
| 20260505040611 | 78 | 233 | 11.0 | 17.0 | 0.00 | 0.00 | 0.00 | 50 | 1002.0 |
| 20260505040111 | 78 | 257 | 12.0 | 18.0 | 0.00 | 0.00 | 0.00 | 49 | 1002.0 |